STARLINK-1274, 45387

Orbit data source: Space-Track

STARLINK-1274, 45387 is a payload satellite owned by SpaceX/Seattle (US) in LEO that was launched on Wed, 18 Mar 2020 UTC via an FALCON 9 launch vehicle from the Air Force Eastern Test Range (AFETR). Payload-class satellites include a variety of spacecraft equipped with specific instruments for various scientific and technological missions. These include communications satellites like Starlink; space stations such as the ISS; scientific satellites like the Hubble; Earth observation satellites from companies like Planet Labs, Umbra, and HawkEye 360; GPS; miniature CubeSats for education and research; and military/defense satellites.

Loading next visibility...
Identifier
45387, 2020-019AD
Orbit
LEO
Country
Flag of USUS
Related business
Manufacturer
SpaceX/Seattle
Mission
Partially operational Commercial Communications
Bus & Motor
STARLINK, Unknown motor
Mass
260 kg wet, ~248 kg dry
Launch date (UTC)
2020-03-18 (6 years ago)
Launch vehicle
FALCON 9
Launch site
Air Force Eastern Test Range (AFETR)
Object type
Payload
Rocket body
Debris
Shape & HBR
Box + 1 Pan, 10.1 m
Radar Cross Section
13.562 m², Large (>1 m²)

Expand to show TLE details & history
Last TLE update: 4 hours ago

TLE from 4 hours ago
0 STARLINK-1274
1 45387U 20019AD  26170.00002315  .00097353  00000-0  10065-2 0  9997
2 45387  53.0195 332.5896 0005543 198.1814 203.5659 15.63972349  5854
Epoch: 2026-06-19T00:00Z
TLE epoch observation values (Epoch: 2026-06-19T00:00:02.000Z)
Latitude
32.22031°
Longitude
93.50492°
Altitude
381.684 km
Speed
7.683 km/s
True Right ascension
00h 02m 59s
True Declination
32° 03' 24"
Sunlit
Object was in daylight at epoch
Visualization orbit readout
Latitude
Unknown
Longitude
Unknown
Altitude
Unknown
Speed
Unknown
Apparent Right ascension
Unknown
Apparent Declination
Unknown
Sunlit
N/A
Visualization observer readout
Local Sidereal Time
15:05:07
Azimuth
Unknown
Elevation
Unknown
Doppler factor
Unknown
Orbital elements
Apogee altitude
380.223 km
Perigee altitude
372.735 km
Semi-major axis
6,754.616 km
Eccentricity
0.00055
Inclination
53.0195°
RAAN
332.5896°
Arg. of periapsis
198.1814°
True anomaly
203.54052°
Mean anomaly
203.5659°
Eccentric anomaly
203.55321°
Mean motion
3.90969 °/min
Orbital period
92.08 mins
BSTAR
0.0010065
Loading maneuver chart data...
Computing Atmospheric mass density...

Documentation

Showing up to 5 results
|